Location: Zagreb
(45.8000°N, 16.0000°E)
Time: 09:32:05
(UTC+01:00)

Altair - All Passes

Search period start: 28 January 2022 00:00
Search period end: 07 February 2022 00:00
Orbit: 1501 x 1683 km, 47.2° (Epoch: 27 January)

Date Brightness Start Highest point End Pass type
(mag) Time Alt. Az. Time Alt. Az. Time Alt. Az.
28 Jan - 01:34:45 10° WSW 01:44:44 82° SSE 01:54:57 10° ENE visible
28 Jan - 03:39:46 10° W 03:49:56 83° N 04:00:10 10° E visible
28 Jan - 05:44:50 10° WNW 05:54:56 71° SSW 06:04:56 10° SE visible
28 Jan - 07:50:22 10° WNW 07:58:37 30° SW 08:06:47 10° S daylight
28 Jan - 23:06:52 10° SSW 23:15:32 37° SE 23:24:26 10° ENE night (unlit)
29 Jan - 01:09:35 10° WSW 01:19:30 80° SSE 01:29:42 10° ENE visible
29 Jan - 03:14:31 10° W 03:24:40 83° N 03:34:55 10° E visible
29 Jan - 05:19:36 10° WNW 05:29:44 74° SSW 05:39:48 10° ESE visible
29 Jan - 07:25:01 10° WNW 07:33:32 32° SW 07:41:58 10° S daylight
29 Jan - 22:42:00 10° SSW 22:50:26 34° SE 22:59:06 10° ENE night (unlit)
30 Jan - 00:44:25 10° WSW 00:54:18 77° SSE 01:04:28 10° ENE visible
30 Jan - 02:49:17 10° W 02:59:24 83° N 03:09:40 10° E visible
30 Jan - 04:54:23 10° WNW 05:04:32 77° SSW 05:14:38 10° ESE visible
30 Jan - 06:59:40 10° WNW 07:08:27 35° SW 07:17:07 10° SSE daylight
30 Jan - 22:17:11 10° S 22:25:21 32° SE 22:33:46 10° ENE night (unlit)
31 Jan - 00:19:17 10° WSW 00:29:06 74° SSE 00:39:13 10° ENE visible
31 Jan - 02:24:03 10° W 02:34:08 83° N 02:44:24 10° E visible
31 Jan - 04:29:09 10° WNW 04:39:19 79° SSW 04:49:27 10° ESE visible
31 Jan - 06:34:22 10° WNW 06:43:21 37° SW 06:52:15 10° SSE visible
31 Jan - 21:52:24 10° S 22:00:17 29° SE 22:08:24 10° ENE night (unlit)
31 Jan - 23:54:10 10° SW 00:03:54 71° SSE 00:13:58 10° ENE visible
01 Feb - 01:58:49 10° W 02:08:53 83° N 02:19:08 10° E visible
01 Feb - 04:03:56 10° WNW 04:14:05 82° SSW 04:24:16 10° ESE visible
01 Feb - 06:09:04 10° WNW 06:18:14 40° SW 06:27:20 10° SSE visible
01 Feb - 21:27:40 10° S 21:35:14 27° SE 21:42:59 10° ENE night (unlit)
01 Feb - 23:29:04 10° SW 23:38:43 68° SSE 23:48:43 10° ENE night (unlit)
02 Feb - 01:33:36 10° W 01:43:37 83° N 01:53:52 10° E visible
02 Feb - 03:38:43 10° WNW 03:48:51 84° SSW 03:59:03 10° ESE visible
02 Feb - 05:43:47 10° WNW 05:53:06 43° SW 06:02:23 10° SSE visible
02 Feb - 07:52:48 10° WSW 07:55:49 12° WSW 07:58:49 10° SW daylight
02 Feb - 21:02:59 10° S 21:10:11 24° SE 21:17:35 10° E night (unlit)
02 Feb - 23:03:58 10° SW 23:13:33 64° SSE 23:23:28 10° ENE night (unlit)
03 Feb - 01:08:23 10° W 01:18:22 84° N 01:28:37 10° E visible
03 Feb - 03:13:30 10° WNW 03:23:37 87° SSW 03:33:50 10° ESE visible
03 Feb - 05:18:31 10° WNW 05:27:59 46° SW 05:37:24 10° SSE visible
03 Feb - 07:26:33 10° W 07:30:48 13° WSW 07:35:03 10° SSW daylight
03 Feb - 20:38:21 10° S 20:45:09 22° SE 20:52:06 10° E visible
03 Feb - 22:38:54 10° SW 22:48:23 61° SSE 22:58:14 10° ENE night (unlit)
04 Feb - 00:43:10 10° W 00:53:07 85° N 01:03:21 10° E visible
04 Feb - 02:48:16 10° WNW 02:58:23 89° SSW 03:08:37 10° ESE visible
04 Feb - 04:53:16 10° WNW 05:02:50 49° SW 05:12:24 10° SSE visible
04 Feb - 07:00:38 10° W 07:05:47 15° WSW 07:10:54 10° SSW daylight
04 Feb - 20:13:47 10° SSE 20:20:07 20° SE 20:26:35 10° E visible
04 Feb - 22:13:51 10° SW 22:23:14 58° SE 22:32:59 10° ENE visible
05 Feb - 00:17:57 10° W 00:27:52 86° N 00:38:05 10° E visible
05 Feb - 02:23:03 10° WNW 02:33:08 89° N 02:43:23 10° ESE visible
05 Feb - 04:28:01 10° WNW 04:37:41 52° SW 04:47:22 10° SE visible
05 Feb - 06:34:55 10° W 06:40:45 17° SW 06:46:36 10° SSW visible
05 Feb - 19:49:19 10° SSE 19:55:05 18° SE 20:00:59 10° E visible
05 Feb - 21:48:50 10° SW 21:58:06 54° SE 22:07:43 10° ENE visible
05 Feb - 23:52:45 10° WSW 00:02:38 88° N 00:12:50 10° E night (unlit)
06 Feb - 01:57:50 10° W 02:07:54 88° NNE 02:18:08 10° ESE visible
06 Feb - 04:02:47 10° WNW 04:12:31 55° SW 04:22:18 10° SE visible
06 Feb - 06:09:17 10° W 06:15:43 19° SW 06:22:08 10° SSW visible
06 Feb - 19:24:58 10° SSE 19:30:06 16° ESE 19:35:18 10° E visible
06 Feb - 21:23:50 10° SW 21:32:58 51° SE 21:42:28 10° ENE visible
06 Feb - 23:27:34 10° WSW 23:37:23 90° NNW 23:47:34 10° ENE night (unlit)
